[[{"header":{"parameterUnit":"m.s-1","parameterCategory":2,"la1":30.2991,"la2":30.254,"lo1":-89.0895,"lo2":-89.0444,"dy":0.0017,"dx":0.0017,"nx":28,"ny":28,"refTime":"2025-06-13T09:00:00:Z","depth":"0","parameterNumber":2,"parameterNumberName":"U-component_of_CURRENTS"},"data":[0,0,0,0,0,0,0,0,0,0,0,0,0,0,0,0,0,0,0,0,0,0,0,0,0,0,0,0,0,0,0,0,0,0,0,0,0,0,0,0,0,0,0,0,0,0,0,0,0,0,0,0,0,0,0,0,0,0,0.3239,0.324,0,0.3308,0.3308,0.3309,0.3237,0.3235,0.3233,0.323,0.3267,0.327,0.3273,0,0,0,0,0,0,0,0,0,0,0,0,0,0.3057,0.3061,0.3239,0.324,0.3242,0.3308,0.3308,0.3309,0.3237,0.3235,0.3232,0.3229,0.3266,0.327,0.3273,0,0,0,0,0,0,0,0,0,0,0,0,0,0.3127,0.3062,0.3239,0.3219,0.3218,0.3308,0.3308,0.3309,0.3238,0.3235,0.3231,0.3228,0.3265,0.3269,0.3274,0.337,0,0,0.3288,0.329,0,0,0,0,0,0,0,0,0.3123,0.3133,0.322,0.322,0.322,0.3265,0.3258,0.333,0.3239,0.3224,0.323,0.3226,0.327,0.3274,0.3287,0.3371,0.3373,0.3288,0.3291,0.3293,0.3295,0,0,0,0,0,0,0,0.3118,0.313,0.326,0.3222,0.3222,0.321,0.3216,0.3271,0.326,0.3225,0.3222,0.324,0.3268,0.3282,0.3287,0.3374,0.3288,0.3292,0.3295,0.3297,0.355,0.3554,0,0,0,0,0,0,0.3126,0.3126,0.3258,0.3263,0.3168,0.3217,0.3222,0.3249,0.326,0.326,0.3243,0.3236,0.3276,0.3282,0.3288,0.3402,0.3293,0.3298,0.33,0.3546,0.3551,0.3555,0,0,0,0,0,0,0.3121,0.3137,0.3256,0.3199,0.3214,0.3224,0.3255,0.3253,0.3264,0.3275,0.3272,0.3255,0.3274,0.3281,0.3358,0.3402,0.33,0.3304,0.3542,0.3548,0.3553,0.363,0,0,0,0,0,0,0.3116,0.3135,0.3159,0.3201,0.3218,0.3331,0.3258,0.3257,0.3283,0.3275,0.3287,0.3286,0.3272,0.3351,0.3362,0.3407,0.3307,0.3537,0.3544,0.3551,0.3623,0.3638,0.3651,0,0,0,0,0,0.3109,0.3166,0.316,0.3177,0.325,0.3335,0.3343,0.3333,0.3288,0.3323,0.3326,0.3285,0.3405,0.3359,0.3371,0.3417,0.3533,0.3542,0.3551,0.3616,0.3635,0.3651,0,0,0,0,0,0,0.3105,0.3166,0.316,0.3232,0.3287,0.3325,0.3362,0.335,0.3381,0.3365,0.3346,0.3351,0.3434,0.3434,0.3383,0.3517,0.346,0.3472,0.3506,0.3524,0.3538,0.3531,0.3311,0,0,0,0,0,0.3118,0.3171,0.3228,0.3289,0.3319,0.334,0.337,0.3369,0.3403,0.3409,0.3417,0.3438,0.3487,0.3507,0.3553,0.3636,0.3651,0.3675,0.3689,0.3701,0.3708,0.3778,0.3798,0.3585,0.3585,0.3584,0,0,0.3135,0.3177,0.3206,0.3291,0.3325,0.3382,0.3349,0.3414,0.3445,0.3416,0.3467,0.3499,0.3526,0.3609,0.3645,0.3608,0.3779,0.3712,0.3721,0.3722,0.3789,0.3809,0.3827,0.3591,0.359,0.3589,0,0,0.3192,0.3235,0.3288,0.3339,0.3408,0.3432,0.3454,0.3506,0.3513,0.3589,0.357,0.3634,0.3701,0.3728,0.3748,0.3881,0.3859,0.3895,0.3951,0.402,0.4036,0.4051,0.4123,0.4144,0.3892,0.3892,0.3892,0,0.3206,0.3274,0.3321,0.3382,0.3427,0.3453,0.3514,0.3545,0.3609,0.3643,0.3614,0.3741,0.3755,0.3856,0.3891,0.3909,0.3945,0.3873,0.4034,0.4049,0.4063,0.4133,0.4155,0.3897,0.3896,0.3896,0.3895,0,0.3287,0.3343,0.339,0.3462,0.3523,0.3594,0.3644,0.3699,0.371,0.3737,0.3845,0.3883,0.395,0.3974,0.3966,0.4085,0.4081,0.4047,0.3977,0.4089,0.4156,0.4177,0.3904,0.3902,0.3901,0.3899,0,0,0.3309,0.342,0.3433,0.3468,0.3569,0.3625,0.3709,0.38,0.3849,0.391,0.3993,0.4074,0.4089,0.4116,0.4129,0.4183,0.4315,0.4157,0.4158,0.4206,0.4481,0.4448,0.4467,0.4304,0.4307,0.431,0.4496,0,0.3352,0.3455,0.3509,0.3605,0.3662,0.3728,0.3803,0.3886,0.3948,0.404,0.4095,0.4179,0.4142,0.4187,0.4241,0.4307,0.4371,0.4268,0.4386,0.439,0.4327,0.4491,0.4296,0.4443,0.4517,0.452,0.4523,0,0.3406,0.3463,0.3559,0.3666,0.3699,0.3754,0.3885,0.3958,0.4092,0.4149,0.4244,0.4288,0.4405,0.4342,0.4498,0.4436,0.4469,0.4501,0.4508,0.4459,0.4396,0.4343,0.4478,0.4397,0.4555,0.4552,0.455,0,0.3385,0.3502,0.357,0.3609,0.3733,0.3784,0.3852,0.3985,0.407,0.422,0.4309,0.4428,0.4508,0.4577,0.4641,0.4585,0.4804,0.473,0.4736,0.4733,0.4582,0.456,0.4627,0.4838,0.4838,0.4837,0.4837,0,0.3419,0.3471,0.3554,0.3588,0.3675,0.3763,0.3874,0.3969,0.4122,0.424,0.4347,0.4467,0.4569,0.4694,0.472,0.4818,0.4872,0.4792,0.4795,0.4609,0.4588,0.4518,0.447,0.4844,0.4843,0.4841,0.484,0,0.3405,0.3463,0.3532,0.3631,0.3667,0.3723,0.3878,0.3963,0.4109,0.4275,0.4335,0.4539,0.4705,0.4806,0.4948,0.4927,0.4889,0.502,0.4802,0.4776,0.4667,0.4631,0.4531,0.4395,0.5067,0.5067,0.5068,0,0.3416,0.3448,0.3534,0.3581,0.3624,0.3718,0.3794,0.3941,0.4033,0.431,0.4385,0.4615,0.4757,0.4981,0.4985,0.5069,0.4921,0.4936,0.4783,0.4684,0.4647,0.4444,0.432,0.463,0.4626,0.4624,0.4622,0,0.3444,0.346,0.3529,0.3582,0.3647,0.372,0.3823,0.3891,0.4076,0.4223,0.4423,0.457,0.4786,0.4806,0.4928,0.4932,0.4705,0.4885,0.4833,0.4374,0.4105,0.3966,0.4498,0.4598,0.4601,0.4602,0.4604,0.4605,0.348,0.3508,0.3572,0.3613,0.3671,0.3694,0.3709,0.3828,0.3954,0.4109,0.4335,0.4459,0.4619,0.4755,0.4736,0.4602,0.4556,0.4478,0.4469,0.4294,0.4069,0.4568,0.4632,0.4634,0.4637,0.4638,0.464,0,0.3515,0.3543,0.3599,0.3625,0.3608,0.3646,0.3709,0.3687,0.3752,0.3935,0.4084,0.4232,0.4296,0.4363,0.435,0.422,0.3967,0.4129,0.3791,0.3709,0.4216,0.4104,0.3992,0.3992,0.3992,0.3992,0.3992,0.3993,0.3565,0.3597,0.3581,0.3538,0.3525,0.3452,0.3436,0.3433,0.3497,0.3557,0.3603,0.375,0.4029,0.4199,0.4088,0.397,0.3668,0.3498,0.3514,0.3889,0.3919,0.3947,0.3832,0.3665,0.3664,0.28,0.2794,0.2789]},{"header":{"parameterUnit":"m.s-1","parameterCategory":2,"la1":30.2991,"la2":30.254,"lo1":-89.0895,"lo2":-89.0444,"dy":0.0017,"dx":0.0017,"nx":28,"ny":28,"refTime":"2025-06-13T09:00:00:Z","depth":"0","parameterNumber":3,"parameterNumberName":"V-component_of_CURRENTS"},"data":[0,0,0,0,0,0,0,0,0,0,0,0,0,0,0,0,0,0,0,0,0,0,0,0,0,0,0,0,0,0,0,0,0,0,0,0,0,0,0,0,0,0,0,0,0,0,0,0,0,0,0,0,0,0,0,0,0,0,0.0222,0.0222,0,0.0178,0.0177,0.0177,0.0132,0.0132,0.0131,0.0131,0.003,0.0028,0.0026,0,0,0,0,0,0,0,0,0,0,0,0,0,0.0207,0.0208,0.0222,0.0222,0.0221,0.0178,0.0177,0.0177,0.0133,0.0132,0.0131,0.0131,0.0031,0.0028,0.0026,0,0,0,0,0,0,0,0,0,0,0,0,0,0.0193,0.0208,0.0222,0.0194,0.0191,0.0178,0.0177,0.0176,0.0133,0.0132,0.0131,0.013,0.0032,0.0028,0.0025,0.0022,0,0,0.0015,0.0014,0,0,0,0,0,0,0,0,0.0194,0.0194,0.0199,0.0196,0.0193,0.016,0.0135,0.0122,0.0133,0.0155,0.0131,0.013,0.0069,0.0063,0.0057,0.0018,0.0013,0.0015,0.0013,0.0012,0.0011,0,0,0,0,0,0,0,0.0195,0.0195,0.0205,0.0198,0.0195,0.0162,0.016,0.0132,0.0116,0.0153,0.015,0.0145,0.0067,0.006,0.0054,0.0012,0.0015,0.0012,0.001,0.0009,-0.0051,-0.005,0,0,0,0,0,0,0.0206,0.0197,0.0206,0.0203,0.0192,0.0164,0.0161,0.0171,0.0117,0.0109,0.0146,0.0143,0.0066,0.0058,0.005,0.0051,0.0012,0.0009,0.0007,-0.0051,-0.0051,-0.005,0,0,0,0,0,0,0.0206,0.0208,0.0208,0.0198,0.0196,0.0165,0.0177,0.0171,0.0162,0.0113,0.0103,0.0143,0.0065,0.0055,0.0029,0.0046,0.0007,0.0004,-0.0051,-0.0051,-0.005,0.0048,0,0,0,0,0,0,0.0206,0.0208,0.0218,0.0199,0.0197,0.0212,0.0177,0.0171,0.0161,0.0157,0.0108,0.0097,0.0063,0.0034,0.0025,0.0041,0.0002,-0.0052,-0.0051,-0.0051,0.0044,0.0052,0.0058,0,0,0,0,0,0.0206,0.0236,0.0219,0.022,0.0212,0.0213,0.021,0.0183,0.0162,0.017,0.013,0.0099,0.0032,0.0032,0.0022,0.0037,-0.0052,-0.0051,-0.0051,0.0041,0.005,0.0058,0,0,0,0,0,0,0.0236,0.0233,0.0215,0.0242,0.0229,0.0206,0.0212,0.0189,0.0165,0.0158,0.0105,0.0093,0.0076,0.0041,0.0042,0.002,-0.0016,-0.0017,0.0057,0.0065,0.0072,0.011,-0.0001,0,0,0,0,0,0.0246,0.0266,0.025,0.0268,0.0266,0.0236,0.0232,0.0215,0.0192,0.018,0.0144,0.0103,0.0072,0.0057,0.0024,0.0015,-0.0011,0.0016,0.0023,0.003,0.0053,0.0026,0.0033,-0.0048,-0.0048,-0.0048,0,0,0.0261,0.0262,0.0271,0.0275,0.0262,0.028,0.0232,0.0236,0.0247,0.0173,0.0174,0.0126,0.0074,0.0064,0.0053,0.0037,0.0037,0.0031,0.0037,0.0057,0.0028,0.0036,0.0043,-0.0047,-0.0047,-0.0047,0,0,0.0309,0.0302,0.0336,0.0332,0.0323,0.0312,0.0316,0.0295,0.0282,0.0273,0.0222,0.0188,0.0142,0.0115,0.0092,0.0117,0.0073,0.01,0.0172,0.0145,0.0152,0.0158,0.0133,0.0135,0.0107,0.0107,0.0107,0,0.0323,0.0367,0.0343,0.0372,0.0383,0.0333,0.0372,0.0354,0.0326,0.0329,0.0285,0.023,0.0171,0.0173,0.0172,0.0136,0.0115,0.0147,0.0157,0.0162,0.0167,0.0139,0.0141,0.0112,0.0111,0.0111,0.011,0,0.0394,0.0426,0.0446,0.047,0.0477,0.0502,0.0479,0.048,0.0449,0.043,0.0417,0.0338,0.0309,0.0277,0.0227,0.0235,0.0208,0.0169,0.0143,0.0181,0.0149,0.0149,0.0119,0.0117,0.0116,0.0114,0,0,0.0439,0.049,0.0495,0.0537,0.0535,0.0561,0.0576,0.0594,0.0628,0.0565,0.0604,0.0513,0.0467,0.0438,0.0369,0.0338,0.0325,0.0273,0.0269,0.0262,0.0274,0.0246,0.0242,0.0291,0.0292,0.0293,0.0239,0,0.0503,0.0599,0.0595,0.0682,0.0737,0.0704,0.074,0.0741,0.072,0.074,0.0653,0.0654,0.0529,0.0524,0.0466,0.0372,0.0332,0.0344,0.0227,0.0223,0.0205,0.0244,0.0233,0.0184,0.0239,0.0239,0.0239,0,0.0577,0.0639,0.0742,0.0829,0.0848,0.0883,0.0946,0.0972,0.0966,0.095,0.0913,0.0844,0.0786,0.0676,0.0529,0.0546,0.0419,0.0332,0.0328,0.0273,0.0196,0.0153,0.0182,-0.0012,0.0238,0.0238,0.0238,0,0.0655,0.0746,0.0843,0.0866,0.0942,0.0983,0.1024,0.1041,0.1094,0.1094,0.113,0.1025,0.1002,0.0834,0.0617,0.0582,0.0463,0.0388,0.0244,0.024,0.0196,0.0187,0.0039,0.029,0.029,0.029,0.029,0,0.0744,0.0823,0.0893,0.0947,0.1078,0.109,0.121,0.1229,0.1279,0.1375,0.1252,0.1296,0.1041,0.0926,0.07,0.0485,0.0517,0.0277,0.0233,0.0227,0.0223,0.0022,-0.0112,0.0288,0.0289,0.0289,0.0289,0,0.0824,0.0865,0.0984,0.1078,0.1122,0.1217,0.1344,0.1429,0.1461,0.1583,0.1598,0.1515,0.1371,0.1104,0.0848,0.0619,0.0275,0.0312,0.0323,0.0281,-0.0043,-0.0171,-0.0375,-0.0474,0.0153,0.0153,0.0152,0,0.0884,0.0953,0.1078,0.1163,0.1211,0.1347,0.1448,0.1517,0.161,0.1725,0.1796,0.1709,0.1668,0.128,0.086,0.0487,0.0261,0.0229,0.0148,-0.0041,-0.0217,-0.0307,-0.0382,0.0119,0.0118,0.0118,0.0117,0,0.1,0.1025,0.1119,0.1279,0.1398,0.1544,0.1688,0.1795,0.1898,0.2016,0.2139,0.2132,0.1758,0.1369,0.0845,0.0573,0.0077,0.0201,0.0001,-0.0249,-0.0352,-0.0474,0.0131,0.011,0.0111,0.0111,0.0111,0.0112,0.108,0.1153,0.126,0.1413,0.1552,0.1722,0.1862,0.2022,0.2219,0.242,0.2393,0.2425,0.1853,0.1136,0.0738,0.0025,0.0006,-0.0195,-0.0332,-0.0399,-0.0507,0.009,0.0019,0.0019,0.0019,0.0019,0.0019,0,0.1172,0.1252,0.1396,0.1571,0.1716,0.1775,0.2011,0.2165,0.2416,0.2587,0.2711,0.2441,0.1754,0.1051,0.0074,-0.0413,-0.0593,-0.0673,-0.0811,-0.0861,-0.0327,-0.034,-0.0485,-0.0485,-0.0485,-0.0485,-0.0484,-0.0484,0.1229,0.1362,0.1422,0.1673,0.1796,0.201,0.215,0.2401,0.2572,0.2794,0.2805,0.2777,0.2218,0.0502,-0.0617,-0.0869,-0.121,-0.1316,-0.1462,-0.1115,-0.108,-0.1047,-0.1087,-0.1388,-0.1389,-0.1924,-0.1929,-0.1934]}],[{"header":{"parameterUnit":"m.s-1","parameterCategory":2,"la1":30.2991,"la2":30.254,"lo1":-89.0895,"lo2":-89.0444,"dy":0.0017,"dx":0.0017,"nx":28,"ny":28,"refTime":"2025-06-13T09:00:00:Z","depth":"2","parameterNumber":2,"parameterNumberName":"U-component_of_CURRENTS"},"data":[0,0,0,0,0,0,0,0,0,0,0,0,0,0,0,0,0,0,0,0,0,0,0,0,0,0,0,0,0,0,0,0,0,0,0,0,0,0,0,0,0,0,0,0,0,0,0,0,0,0,0,0,0,0,0,0,0,0,0.2975,0.2976,0,0.3036,0.3036,0.3037,0.3002,0.3001,0.3,0.2999,0.3064,0.3066,0.3069,0,0,0,0,0,0,0,0,0,0,0,0,0,0.2838,0.284,0.2975,0.2976,0.2977,0.3036,0.3037,0.3037,0.3002,0.3001,0.2999,0.2998,0.3063,0.3066,0.3069,0,0,0,0,0,0,0,0,0,0,0,0,0,0.2892,0.2841,0.2975,0.2972,0.2973,0.3036,0.3037,0.3037,0.3003,0.3001,0.2999,0.2997,0.3062,0.3066,0.307,0.313,0,0,0.3083,0.3085,0,0,0,0,0,0,0,0,0.2889,0.2896,0.2971,0.2972,0.2973,0.3015,0.3012,0.307,0.3003,0.2985,0.2999,0.2997,0.3053,0.3058,0.3065,0.3133,0.3136,0.3083,0.3086,0.3087,0.3089,0,0,0,0,0,0,0,0.2885,0.2894,0.2993,0.2973,0.2974,0.2972,0.2976,0.3023,0.3023,0.2986,0.2985,0.3002,0.3053,0.306,0.3066,0.3137,0.3083,0.3087,0.3089,0.3091,0.328,0.3283,0,0,0,0,0,0,0.2892,0.2891,0.2991,0.2995,0.2933,0.2976,0.2981,0.2998,0.3023,0.3026,0.3004,0.3001,0.3054,0.3061,0.3068,0.3188,0.3087,0.3091,0.3094,0.3278,0.3281,0.3284,0,0,0,0,0,0,0.2889,0.29,0.2989,0.2949,0.2961,0.298,0.3,0.3001,0.302,0.3037,0.3039,0.3024,0.3053,0.3062,0.3136,0.3188,0.3093,0.3097,0.3275,0.3279,0.3282,0.3398,0,0,0,0,0,0,0.2885,0.2899,0.2917,0.295,0.2963,0.3052,0.3002,0.3003,0.3036,0.3032,0.3056,0.3059,0.3052,0.313,0.314,0.3192,0.31,0.3272,0.3277,0.3281,0.3391,0.3405,0.3417,0,0,0,0,0,0.2879,0.2914,0.2917,0.293,0.2986,0.3055,0.3062,0.3065,0.3039,0.307,0.3084,0.3059,0.3166,0.3137,0.3148,0.3202,0.3269,0.3275,0.3281,0.3385,0.3402,0.3417,0,0,0,0,0,0,0.287,0.2915,0.2919,0.2966,0.302,0.3052,0.3086,0.3083,0.3117,0.3115,0.3107,0.3114,0.3192,0.3188,0.3155,0.3268,0.3208,0.3216,0.3284,0.33,0.3313,0.3309,0.3104,0,0,0,0,0,0.2878,0.2913,0.2963,0.3009,0.3037,0.3064,0.3091,0.3102,0.3136,0.3147,0.3169,0.319,0.3225,0.3254,0.3285,0.3364,0.3364,0.34,0.3413,0.3425,0.3429,0.348,0.3499,0.3302,0.3302,0.3302,0,0,0.2893,0.2922,0.2944,0.301,0.3046,0.3096,0.3075,0.3139,0.3176,0.3155,0.3222,0.3246,0.3256,0.3335,0.3369,0.3339,0.3487,0.3432,0.3442,0.3439,0.3488,0.3507,0.3524,0.3306,0.3305,0.3305,0,0,0.2938,0.2967,0.3008,0.3058,0.3127,0.3143,0.3167,0.3224,0.3246,0.3324,0.3309,0.3367,0.3428,0.3448,0.346,0.357,0.3553,0.3581,0.3653,0.3705,0.3721,0.3735,0.3783,0.38,0.359,0.359,0.359,0,0.2951,0.3005,0.3037,0.3094,0.3145,0.3165,0.3231,0.3259,0.3332,0.3367,0.3359,0.346,0.3476,0.3554,0.3593,0.36,0.3627,0.3592,0.3722,0.3736,0.3749,0.3794,0.3811,0.3596,0.3596,0.3595,0.3594,0,0.3022,0.3073,0.3113,0.3177,0.3238,0.3308,0.3358,0.341,0.3434,0.3461,0.3562,0.3599,0.3652,0.3675,0.3672,0.3776,0.3767,0.3732,0.3681,0.3776,0.3817,0.3834,0.3605,0.3603,0.3601,0.36,0,0,0.3035,0.3137,0.3154,0.3188,0.3293,0.3337,0.3425,0.3502,0.3536,0.3616,0.3691,0.3768,0.3786,0.3802,0.3818,0.3872,0.3997,0.3856,0.3856,0.3901,0.4128,0.4013,0.4019,0.3995,0.3998,0.4001,0.4128,0,0.3083,0.3174,0.3234,0.3326,0.3376,0.3445,0.3513,0.3586,0.3641,0.3715,0.3772,0.3845,0.3832,0.3881,0.3936,0.3986,0.4044,0.3966,0.4029,0.4031,0.3916,0.4035,0.3766,0.3847,0.4144,0.4147,0.4148,0,0.3131,0.3182,0.3284,0.3376,0.3409,0.3463,0.3571,0.3644,0.3747,0.3808,0.3898,0.3931,0.4049,0.4009,0.4143,0.4103,0.4129,0.4153,0.4157,0.4015,0.3946,0.3796,0.3866,0.4175,0.4173,0.4171,0.4169,0,0.3097,0.3213,0.3283,0.3327,0.3438,0.3495,0.3556,0.3666,0.3752,0.3877,0.3952,0.4057,0.4143,0.4199,0.4258,0.4221,0.4389,0.4328,0.4245,0.4237,0.3999,0.3964,0.4409,0.4409,0.4409,0.4409,0.4408,0,0.3118,0.3171,0.3258,0.3297,0.3375,0.3471,0.3573,0.3651,0.3798,0.3903,0.3994,0.4093,0.42,0.4296,0.4316,0.4348,0.4436,0.4284,0.4271,0.4033,0.4001,0.426,0.4241,0.4413,0.4412,0.4411,0.441,0,0.3093,0.3153,0.3224,0.3329,0.3364,0.3424,0.3592,0.3652,0.3801,0.3953,0.4013,0.4177,0.4299,0.4375,0.4486,0.4419,0.4455,0.4433,0.4149,0.4098,0.4254,0.424,0.4355,0.4352,0.435,0.4348,0.4346,0,0.3093,0.3128,0.3232,0.3279,0.3334,0.3434,0.3498,0.3649,0.373,0.3986,0.4043,0.4228,0.43,0.4417,0.4393,0.441,0.4459,0.4109,0.3961,0.4277,0.4254,0.4243,0.4232,0.3712,0.3705,0.37,0.3695,0,0.3128,0.3165,0.3222,0.328,0.3341,0.3407,0.3507,0.3562,0.3748,0.3865,0.4015,0.4101,0.4244,0.413,0.4152,0.411,0.4079,0.3992,0.4432,0.3749,0.3675,0.365,0.366,0.3646,0.3651,0.3655,0.3657,0.3659,0.3144,0.3194,0.3261,0.3258,0.3344,0.3352,0.3349,0.3437,0.3525,0.3619,0.3811,0.3818,0.3892,0.3768,0.3674,0.3607,0.386,0.3657,0.3673,0.3694,0.3579,0.3503,0.3421,0.3425,0.3428,0.343,0.3433,0,0.3118,0.3176,0.324,0.3239,0.3238,0.3306,0.3333,0.3243,0.324,0.3373,0.3436,0.3183,0.3148,0.3223,0.307,0.3051,0.3006,0.2902,0.2829,0.2884,0.2931,0.2773,0.2403,0.2399,0.2395,0.2391,0,0,0.3139,0.3147,0.3129,0.3085,0.3109,0.3058,0.3026,0.2886,0.2895,0.278,0.2782,0.2989,0.3152,0.2722,0.2693,0.2524,0.2667,0.2428,0.3276,0.3251,0.3292,0.3415,0.3241,0,0,0,0,0]},{"header":{"parameterUnit":"m.s-1","parameterCategory":2,"la1":30.2991,"la2":30.254,"lo1":-89.0895,"lo2":-89.0444,"dy":0.0017,"dx":0.0017,"nx":28,"ny":28,"refTime":"2025-06-13T09:00:00:Z","depth":"2","parameterNumber":3,"parameterNumberName":"V-component_of_CURRENTS"},"data":[0,0,0,0,0,0,0,0,0,0,0,0,0,0,0,0,0,0,0,0,0,0,0,0,0,0,0,0,0,0,0,0,0,0,0,0,0,0,0,0,0,0,0,0,0,0,0,0,0,0,0,0,0,0,0,0,0,0,0.0099,0.0098,0,0.0053,0.0052,0.0052,0.0019,0.0018,0.0018,0.0018,-0.0073,-0.0075,-0.0077,0,0,0,0,0,0,0,0,0,0,0,0,0,0.0092,0.0093,0.0099,0.0098,0.0098,0.0053,0.0052,0.0052,0.0019,0.0018,0.0018,0.0018,-0.0072,-0.0074,-0.0077,0,0,0,0,0,0,0,0,0,0,0,0,0,0.0076,0.0093,0.0099,0.0076,0.0073,0.0053,0.0052,0.0051,0.0019,0.0018,0.0018,0.0017,-0.0071,-0.0074,-0.0077,-0.0088,0,0,-0.0087,-0.0088,0,0,0,0,0,0,0,0,0.0077,0.0077,0.008,0.0077,0.0074,0.0041,0.0017,0.0002,0.0019,0.004,0.0018,0.0017,-0.0039,-0.0045,-0.0051,-0.0092,-0.0096,-0.0087,-0.0089,-0.0091,-0.0092,0,0,0,0,0,0,0,0.0078,0.0078,0.0081,0.0079,0.0076,0.0045,0.0043,0.0014,0.0003,0.0038,0.0035,0.003,-0.0041,-0.0048,-0.0054,-0.0097,-0.0087,-0.009,-0.0092,-0.0093,-0.0157,-0.0157,0,0,0,0,0,0,0.0088,0.008,0.0082,0.0079,0.0074,0.0046,0.0043,0.0052,0.0004,-0.0003,0.003,0.0028,-0.0042,-0.005,-0.0057,-0.0053,-0.0091,-0.0094,-0.0095,-0.0157,-0.0157,-0.0157,0,0,0,0,0,0,0.0088,0.0089,0.0084,0.0077,0.0074,0.0047,0.0057,0.0051,0.0045,-0.0001,-0.001,0.0029,-0.0043,-0.0053,-0.0076,-0.0058,-0.0095,-0.0098,-0.0158,-0.0157,-0.0157,-0.0058,0,0,0,0,0,0,0.0088,0.009,0.0097,0.0078,0.0075,0.0086,0.0057,0.0051,0.0042,0.0039,-0.0005,-0.0014,-0.0044,-0.0071,-0.0079,-0.0063,-0.01,-0.0158,-0.0158,-0.0157,-0.0061,-0.0054,-0.0048,0,0,0,0,0,0.0089,0.0111,0.0098,0.0098,0.0088,0.0087,0.0083,0.006,0.0042,0.005,0.0015,-0.0013,-0.0075,-0.0073,-0.0083,-0.0067,-0.0158,-0.0158,-0.0157,-0.0064,-0.0055,-0.0048,0,0,0,0,0,0,0.0114,0.0109,0.0095,0.0114,0.0103,0.0081,0.0085,0.0065,0.0044,0.004,-0.0008,-0.0019,-0.0034,-0.0068,-0.0066,-0.0087,-0.0122,-0.0123,-0.0048,-0.004,-0.0033,-0.0,-0.0103,0,0,0,0,0,0.0122,0.0137,0.0122,0.0136,0.0135,0.0108,0.0102,0.009,0.0068,0.0059,0.0027,-0.0011,-0.004,-0.0053,-0.0085,-0.0093,-0.0129,-0.0092,-0.0086,-0.0079,-0.0061,-0.0103,-0.0098,-0.0155,-0.0155,-0.0155,0,0,0.0134,0.0133,0.0141,0.0142,0.0131,0.0148,0.0104,0.0108,0.0121,0.0052,0.0056,0.0011,-0.0039,-0.0047,-0.0057,-0.0072,-0.0084,-0.0079,-0.0073,-0.0057,-0.0102,-0.0096,-0.0091,-0.0155,-0.0155,-0.0155,0,0,0.0177,0.0168,0.0198,0.0196,0.0189,0.0177,0.0181,0.0164,0.0155,0.0148,0.0101,0.007,0.0027,0.0001,-0.0021,0.0001,-0.0049,-0.0014,0.0054,0.0012,0.0017,0.0021,-0.0018,-0.0018,-0.0007,-0.0006,-0.0006,0,0.0189,0.0228,0.0204,0.0233,0.0244,0.0197,0.0236,0.022,0.0196,0.0195,0.0163,0.0102,0.0053,0.0046,0.0053,0.002,-0.0012,0.0031,0.0023,0.0026,0.0029,-0.0013,-0.0014,-0.0001,-0.0002,-0.0002,-0.0003,0,0.0256,0.0284,0.0303,0.0327,0.0335,0.0359,0.034,0.0338,0.0313,0.0292,0.0273,0.0205,0.0173,0.0146,0.0107,0.0104,0.0073,0.0035,0.001,0.0041,-0.0005,-0.0009,0.0006,0.0004,0.0002,0.0001,0,0,0.0295,0.0343,0.0349,0.0385,0.0391,0.0411,0.043,0.044,0.0457,0.0408,0.0428,0.0357,0.0313,0.0285,0.0225,0.0187,0.0165,0.013,0.0125,0.0105,0.0078,0.0018,0.0008,0.0127,0.0127,0.0127,0.0039,0,0.0356,0.0442,0.0444,0.0523,0.0569,0.0544,0.057,0.0567,0.0543,0.0544,0.0467,0.0458,0.0368,0.036,0.0304,0.0205,0.0161,0.0192,0.0039,0.0035,-0.001,0.0004,0.0045,-0.0033,0.0036,0.0035,0.0034,0,0.0424,0.0477,0.0573,0.0641,0.0658,0.0691,0.0731,0.0753,0.0729,0.0712,0.0675,0.0607,0.0553,0.0469,0.0317,0.0343,0.0225,0.0136,0.0129,0.0041,-0.0031,-0.0055,-0.0043,0.0028,0.0028,0.0029,0.0029,0,0.0483,0.0567,0.0654,0.0677,0.0738,0.0774,0.0806,0.0805,0.0852,0.0831,0.0851,0.0748,0.0724,0.0562,0.0366,0.0347,0.0191,0.0135,-0.0031,-0.0037,-0.0048,-0.0055,0.0028,0.0028,0.0028,0.0029,0.0029,0,0.0554,0.0623,0.0691,0.0739,0.0846,0.0859,0.0956,0.0962,0.0997,0.1075,0.0953,0.0976,0.0748,0.0622,0.0419,0.0189,0.0226,-0.001,-0.0061,-0.0015,-0.0017,-0.0003,-0.0005,0.0025,0.0026,0.0027,0.0027,0,0.0611,0.0653,0.076,0.0844,0.0882,0.0962,0.1081,0.114,0.1161,0.126,0.1271,0.1166,0.1002,0.0748,0.0492,0.0277,0.0052,-0.0042,0.0027,-0.0015,-0.0163,-0.016,-0.0234,-0.0237,-0.024,-0.0242,-0.0243,0,0.0652,0.0713,0.0841,0.0919,0.0965,0.1085,0.1164,0.1225,0.1303,0.1381,0.1431,0.1314,0.1229,0.0811,0.0442,0.0078,0.0034,-0.0146,-0.0189,-0.0147,-0.0189,-0.0182,-0.0175,-0.0164,-0.0165,-0.0166,-0.0167,0,0.0739,0.0778,0.0856,0.1012,0.1117,0.1242,0.1364,0.1461,0.1549,0.1624,0.169,0.1634,0.126,0.0889,0.038,0.0131,-0.0091,-0.0175,-0.0134,-0.0111,-0.009,-0.0129,-0.0122,-0.0173,-0.0172,-0.0172,-0.0171,-0.0171,0.0784,0.0859,0.0968,0.1091,0.1234,0.1382,0.1492,0.1625,0.1774,0.1896,0.1839,0.1762,0.1368,0.0707,0.029,-0.0139,-0.0129,-0.0301,-0.0294,-0.0288,-0.027,-0.0256,-0.0366,-0.0366,-0.0367,-0.0367,-0.0367,0,0.0823,0.0913,0.105,0.1199,0.1348,0.142,0.1612,0.1699,0.1885,0.1991,0.2017,0.1606,0.1199,0.0766,0.0133,-0.0274,-0.028,-0.0404,-0.0314,-0.0306,-0.0299,-0.0279,-0.0379,-0.038,-0.0381,-0.0382,0,0,0.0855,0.0959,0.1015,0.1247,0.1385,0.1573,0.1693,0.1831,0.1939,0.1997,0.1982,0.1863,0.1345,0.0875,0.0347,-0.0004,-0.0064,-0.0081,-0.0031,0.0146,0.0158,-0.0203,-0.0159,0,0,0,0,0]}],[{"header":{"parameterUnit":"m.s-1","parameterCategory":2,"la1":30.2991,"la2":30.254,"lo1":-89.0895,"lo2":-89.0444,"dy":0.0017,"dx":0.0017,"nx":28,"ny":28,"refTime":"2025-06-13T09:00:00:Z","depth":"4","parameterNumber":2,"parameterNumberName":"U-component_of_CURRENTS"},"data":[0,0,0,0,0,0,0,0,0,0,0,0,0,0,0,0,0,0,0,0,0,0,0,0,0,0,0,0,0,0,0,0,0,0,0,0,0,0,0,0,0,0,0,0,0,0,0,0,0,0,0,0,0,0,0,0,0,0,0.1849,0.185,0,0.1905,0.1905,0.1905,0.1984,0.1986,0.1987,0.1989,0.2084,0.2085,0.2086,0,0,0,0,0,0,0,0,0,0,0,0,0,0.1765,0.1765,0.1849,0.185,0.1851,0.1905,0.1905,0.1905,0.1983,0.1986,0.1988,0.199,0.2084,0.2085,0.2086,0,0,0,0,0,0,0,0,0,0,0,0,0,0.1804,0.1766,0.1849,0.1901,0.1906,0.1905,0.1905,0.1905,0.1983,0.1986,0.1988,0.1991,0.2083,0.2085,0.2086,0.2039,0,0,0.209,0.209,0,0,0,0,0,0,0,0,0.1802,0.1806,0.1892,0.1897,0.1903,0.1945,0.191,0.1954,0.1982,0.1948,0.1989,0.1992,0.2042,0.2047,0.2044,0.2044,0.2048,0.209,0.2091,0.2091,0.2092,0,0,0,0,0,0,0,0.1799,0.1804,0.1866,0.1893,0.19,0.1906,0.1914,0.1918,0.1976,0.1952,0.1959,0.1972,0.2045,0.2042,0.2047,0.2049,0.209,0.2091,0.2092,0.2092,0.2178,0.2179,0,0,0,0,0,0,0.1802,0.1802,0.1864,0.1868,0.1864,0.1905,0.1915,0.1924,0.1976,0.1987,0.197,0.1976,0.2039,0.2045,0.2051,0.2149,0.2091,0.2092,0.2093,0.2176,0.2178,0.2179,0,0,0,0,0,0,0.1799,0.1806,0.1862,0.184,0.1849,0.1905,0.1915,0.1924,0.1965,0.199,0.2002,0.2007,0.2041,0.2049,0.21,0.2148,0.2093,0.2094,0.2174,0.2177,0.2179,0.2249,0,0,0,0,0,0,0.1797,0.1805,0.1824,0.184,0.185,0.188,0.1913,0.1923,0.1969,0.1978,0.2024,0.2034,0.2044,0.2098,0.2101,0.2148,0.2095,0.2172,0.2175,0.2178,0.2244,0.2253,0.226,0,0,0,0,0,0.1793,0.1798,0.1824,0.1833,0.1871,0.188,0.1885,0.193,0.1969,0.1978,0.2029,0.2035,0.2119,0.21,0.2103,0.2152,0.2171,0.2174,0.2178,0.2241,0.2251,0.226,0,0,0,0,0,0,0.1769,0.1807,0.1836,0.1854,0.1879,0.1896,0.1916,0.1946,0.1989,0.2014,0.2044,0.2055,0.2123,0.2118,0.2096,0.2185,0.2149,0.2153,0.2196,0.2206,0.2213,0.2228,0.2096,0,0,0,0,0,0.1772,0.1791,0.1824,0.1841,0.1857,0.1893,0.1911,0.1939,0.1975,0.1998,0.2044,0.2088,0.2127,0.2154,0.2179,0.2213,0.2229,0.225,0.2258,0.2264,0.2279,0.2357,0.2374,0.2191,0.2191,0.219,0,0,0.1765,0.1793,0.1804,0.1839,0.1864,0.1895,0.191,0.194,0.1988,0.1999,0.2088,0.2117,0.2143,0.2199,0.2228,0.2209,0.232,0.2269,0.2275,0.2285,0.2362,0.2381,0.2397,0.2193,0.2192,0.2192,0,0,0.1752,0.179,0.1802,0.1832,0.188,0.1904,0.1923,0.1969,0.2016,0.2077,0.2117,0.2176,0.2227,0.2266,0.2286,0.2346,0.2361,0.2361,0.2414,0.249,0.2507,0.2521,0.2543,0.2559,0.2364,0.2364,0.2364,0,0.1752,0.1779,0.1805,0.1835,0.1874,0.1919,0.1951,0.1993,0.2059,0.2115,0.212,0.2248,0.2261,0.235,0.2375,0.2368,0.24,0.2376,0.2503,0.2518,0.2531,0.255,0.2567,0.2368,0.2367,0.2367,0.2366,0,0.1747,0.179,0.1801,0.1867,0.1901,0.1934,0.2,0.2063,0.213,0.2186,0.2301,0.2327,0.2413,0.242,0.2414,0.2525,0.2511,0.2506,0.2481,0.2554,0.2569,0.2585,0.2373,0.2372,0.2371,0.237,0,0,0.17,0.1784,0.1795,0.1846,0.193,0.1957,0.2049,0.2144,0.2231,0.2308,0.2423,0.2485,0.2531,0.2556,0.257,0.2618,0.2719,0.2609,0.2611,0.2633,0.287,0.2684,0.2683,0.2755,0.2759,0.2762,0.2833,0,0.1702,0.1763,0.1806,0.1889,0.1935,0.202,0.21,0.2199,0.2295,0.2416,0.2488,0.2594,0.2576,0.2629,0.2685,0.2714,0.2771,0.2699,0.2792,0.2794,0.2624,0.2698,0.2774,0.2845,0.2849,0.2851,0.2853,0,0.1691,0.1743,0.1818,0.1932,0.1959,0.2023,0.2182,0.2256,0.2425,0.2503,0.2635,0.2707,0.2813,0.278,0.2896,0.2861,0.2884,0.2889,0.2893,0.2709,0.2639,0.2762,0.2883,0.288,0.2878,0.2876,0.2874,0,0.1659,0.1755,0.1825,0.1867,0.1994,0.2067,0.2143,0.2301,0.2383,0.2585,0.2671,0.2819,0.2897,0.2969,0.2998,0.2975,0.3099,0.3065,0.2921,0.2906,0.3021,0.3005,0.317,0.3169,0.3169,0.3169,0.3169,0,0.1646,0.1706,0.1827,0.1873,0.196,0.2064,0.2191,0.2287,0.2452,0.255,0.2723,0.2814,0.2957,0.3045,0.3056,0.3028,0.3161,0.2943,0.2926,0.3043,0.3029,0.3031,0.3014,0.3172,0.3171,0.3171,0.317,0,0.1588,0.1678,0.1766,0.1908,0.1951,0.202,0.218,0.2261,0.2435,0.257,0.2642,0.2845,0.2952,0.3053,0.3155,0.3072,0.3078,0.3044,0.315,0.3136,0.2815,0.2801,0.2877,0.2872,0.2867,0.2863,0.286,0,0.1554,0.1599,0.1754,0.1794,0.1862,0.1982,0.2046,0.223,0.2309,0.2555,0.259,0.2791,0.2906,0.2896,0.3012,0.3038,0.301,0.2983,0.2903,0.2816,0.2794,0.2787,0.2779,0.2852,0.2851,0.2849,0.2848,0,0.1462,0.1543,0.1589,0.1688,0.1771,0.1855,0.1967,0.2015,0.2222,0.2408,0.2502,0.259,0.2706,0.2785,0.2837,0.2849,0.2977,0.2932,0.2941,0.2866,0.2786,0.2767,0.2765,0.2831,0.2834,0.2835,0.2836,0,0.137,0.1367,0.1447,0.1526,0.1619,0.1675,0.1777,0.1869,0.1977,0.2248,0.2276,0.2487,0.2674,0.2688,0.2731,0.2735,0.269,0.2587,0.2613,0.2633,0.2521,0.2382,0.2303,0,0,0,0,0,0.126,0.1229,0.1269,0.1339,0.144,0.1517,0.1676,0.1793,0.2015,0.2017,0.2142,0.2247,0.2345,0.2457,0.2413,0.2613,0.2688,0.2548,0.2578,0.2739,0.2758,0.265,0,0,0,0,0,0,0.1172,0.1173,0.1196,0.1177,0.1204,0.1299,0.1412,0.1571,0.1598,0.1835,0.1908,0.2088,0.2222,0.2336,0.2359,0.239,0.2359,0.2683,0.2677,0.2728,0.2746,0.2761,0.2656,0,0,0,0,0]},{"header":{"parameterUnit":"m.s-1","parameterCategory":2,"la1":30.2991,"la2":30.254,"lo1":-89.0895,"lo2":-89.0444,"dy":0.0017,"dx":0.0017,"nx":28,"ny":28,"refTime":"2025-06-13T09:00:00:Z","depth":"4","parameterNumber":3,"parameterNumberName":"V-component_of_CURRENTS"},"data":[0,0,0,0,0,0,0,0,0,0,0,0,0,0,0,0,0,0,0,0,0,0,0,0,0,0,0,0,0,0,0,0,0,0,0,0,0,0,0,0,0,0,0,0,0,0,0,0,0,0,0,0,0,0,0,0,0,0,0.0032,0.0032,0,0.0005,0.0005,0.0005,-0.0019,-0.002,-0.002,-0.002,-0.0089,-0.009,-0.0092,0,0,0,0,0,0,0,0,0,0,0,0,0,0.0021,0.0022,0.0032,0.0032,0.0031,0.0005,0.0005,0.0005,-0.0019,-0.002,-0.002,-0.0021,-0.0088,-0.009,-0.0092,0,0,0,0,0,0,0,0,0,0,0,0,0,0.0015,0.0022,0.0032,0.0015,0.0013,0.0006,0.0005,0.0005,-0.0019,-0.002,-0.002,-0.0021,-0.0088,-0.009,-0.0092,-0.0093,0,0,-0.0099,-0.01,0,0,0,0,0,0,0,0,0.0015,0.0015,0.0018,0.0016,0.0014,-0.0005,-0.0024,-0.0031,-0.0019,-0.0006,-0.002,-0.0021,-0.0065,-0.0069,-0.007,-0.0097,-0.01,-0.0099,-0.01,-0.0101,-0.0102,0,0,0,0,0,0,0,0.0016,0.0016,0.0023,0.0018,0.0015,-0.0005,-0.0006,-0.0025,-0.0031,-0.0007,-0.0009,-0.0013,-0.0066,-0.0068,-0.0072,-0.0101,-0.0099,-0.0101,-0.0102,-0.0103,-0.0129,-0.0129,0,0,0,0,0,0,0.002,0.0017,0.0023,0.0022,0.0012,-0.0004,-0.0006,0.0003,-0.003,-0.0036,-0.0013,-0.0014,-0.0064,-0.007,-0.0075,-0.0069,-0.0101,-0.0103,-0.0104,-0.013,-0.0129,-0.0128,0,0,0,0,0,0,0.002,0.0021,0.0025,0.0017,0.0016,-0.0003,0.0006,0.0002,-0.0003,-0.0035,-0.0041,-0.0015,-0.0065,-0.0072,-0.0087,-0.0073,-0.0104,-0.0106,-0.0131,-0.013,-0.0129,-0.0065,0,0,0,0,0,0,0.002,0.0022,0.0027,0.0018,0.0016,0.003,0.0006,0.0002,-0.0005,-0.0007,-0.0039,-0.0045,-0.0066,-0.0083,-0.0089,-0.0076,-0.0108,-0.0131,-0.013,-0.0129,-0.0068,-0.0062,-0.0057,0,0,0,0,0,0.002,0.0039,0.0028,0.0028,0.0026,0.0031,0.0029,0.0013,-0.0004,0.0004,-0.0021,-0.0045,-0.008,-0.0084,-0.0091,-0.0079,-0.0132,-0.013,-0.0129,-0.007,-0.0063,-0.0057,0,0,0,0,0,0,0.0038,0.0038,0.0026,0.0043,0.0038,0.0027,0.003,0.0015,0.0003,-0.0003,-0.0038,-0.0046,-0.0053,-0.0075,-0.0079,-0.0083,-0.0109,-0.0109,-0.0062,-0.0056,-0.005,-0.0044,-0.011,0,0,0,0,0,0.0044,0.0058,0.005,0.0062,0.0062,0.0043,0.0041,0.0032,0.0019,0.0013,-0.001,-0.0035,-0.0051,-0.0061,-0.0078,-0.0082,-0.0123,-0.0078,-0.0073,-0.0068,-0.0067,-0.012,-0.012,-0.0124,-0.0124,-0.0124,0,0,0.0052,0.0054,0.006,0.0066,0.0059,0.0074,0.0041,0.0046,0.0056,0.0006,0.0011,-0.0018,-0.0049,-0.0049,-0.0054,-0.0067,-0.0087,-0.0066,-0.0062,-0.0064,-0.0119,-0.0119,-0.0119,-0.0123,-0.0123,-0.0123,0,0,0.0083,0.008,0.0102,0.0105,0.0101,0.0095,0.0098,0.0088,0.0081,0.0081,0.0047,0.0024,0.0005,-0.0016,-0.0029,-0.0006,-0.0057,-0.0008,0.0025,-0.0026,-0.0026,-0.0027,-0.0074,-0.0079,-0.0004,-0.0004,-0.0004,0,0.009,0.0119,0.0108,0.0131,0.0135,0.0109,0.0132,0.0128,0.0114,0.0107,0.0092,0.0049,0.0021,0.0009,0.002,0.0006,-0.0031,0.0004,-0.002,-0.0021,-0.0023,-0.0071,-0.0078,-0.0001,-0.0001,-0.0002,-0.0002,0,0.0138,0.0158,0.0172,0.0193,0.0198,0.0214,0.0207,0.0208,0.019,0.0178,0.0158,0.0117,0.009,0.008,0.0058,0.0037,0.0013,-0.0008,-0.0036,-0.0019,-0.007,-0.0079,0.0004,0.0002,0.0002,0.0001,0,0,0.016,0.0199,0.0202,0.0221,0.0231,0.0243,0.0259,0.0263,0.0267,0.0243,0.0239,0.0203,0.0169,0.0151,0.0114,0.007,0.0025,0.0032,0.0028,-0.0013,-0.0087,-0.0088,-0.0097,-0.0002,-0.0003,-0.0004,-0.0115,0,0.0196,0.0251,0.0259,0.0307,0.0331,0.0318,0.0336,0.0333,0.0318,0.0312,0.0258,0.0246,0.0202,0.0189,0.0138,0.0053,0.0005,0.0058,-0.0098,-0.0103,-0.0105,-0.0106,-0.0007,-0.0122,-0.0124,-0.0126,-0.0127,0,0.0236,0.0268,0.0322,0.036,0.0369,0.0395,0.0406,0.0422,0.0403,0.0386,0.0354,0.0316,0.0259,0.0218,0.0075,0.0111,0.0021,-0.0052,-0.0059,-0.0088,-0.0119,-0.0145,-0.0143,-0.0141,-0.014,-0.0139,-0.0138,0,0.0252,0.031,0.0355,0.0369,0.0409,0.0428,0.0447,0.0443,0.0463,0.0437,0.0439,0.0359,0.0328,0.0202,0.0067,0.0066,-0.01,-0.0122,-0.021,-0.0212,-0.0207,-0.0205,-0.0229,-0.0229,-0.0228,-0.0228,-0.0228,0,0.0281,0.0317,0.037,0.0396,0.0451,0.0463,0.0512,0.0509,0.052,0.0549,0.0484,0.0479,0.0321,0.022,0.0079,-0.0087,-0.0093,-0.0208,-0.0242,-0.0176,-0.017,-0.0213,-0.021,-0.0232,-0.0231,-0.0231,-0.023,0,0.0284,0.0321,0.038,0.0437,0.0464,0.0502,0.0574,0.0608,0.0603,0.0637,0.0637,0.0566,0.043,0.0264,0.0057,-0.0058,-0.0226,-0.0284,-0.0194,-0.0221,-0.031,-0.0302,-0.0399,-0.04,-0.0401,-0.0402,-0.0402,0,0.029,0.0322,0.041,0.0458,0.0491,0.0559,0.0612,0.0645,0.0687,0.0691,0.071,0.0611,0.0538,0.0258,0.0064,-0.0209,-0.0247,-0.0339,-0.0333,-0.0305,-0.0328,-0.0319,-0.031,-0.0404,-0.0404,-0.0404,-0.0404,0,0.0296,0.033,0.0379,0.0484,0.0559,0.0643,0.072,0.0759,0.0797,0.0797,0.0779,0.0648,0.0496,0.0277,0.0067,-0.013,-0.0285,-0.0349,-0.0349,-0.0344,-0.0312,-0.0332,-0.0322,-0.0407,-0.0407,-0.0407,-0.0406,0,0.0303,0.0334,0.0414,0.0506,0.0603,0.07,0.0742,0.0802,0.0846,0.0852,0.0844,0.0685,0.0597,0.0317,0.0122,-0.0071,-0.0127,-0.0197,-0.0206,-0.0205,-0.0117,-0.0046,-0.0091,0,0,0,0,0,0.0316,0.036,0.0436,0.0546,0.0641,0.0707,0.0805,0.0841,0.0883,0.0885,0.087,0.0734,0.0464,0.0351,0.0159,0.0077,-0.0182,-0.0158,-0.0271,-0.0423,-0.042,-0.035,0,0,0,0,0,0,0.0326,0.0396,0.0433,0.0564,0.0642,0.0759,0.0825,0.0856,0.0861,0.087,0.0739,0.0674,0.0416,0.0576,0.0153,0.0093,-0.0009,-0.0282,-0.0287,-0.0425,-0.0422,-0.0419,-0.0346,0,0,0,0,0]}]]